Tracking 19476 objects as of 17-Jan-2019
HD Live streaming from Space Station
objects crossing your sky now

BEIDOU 3M8

Track BEIDOU 3M8 now!
BEIDOU 3M8 is classified as:


NORAD ID: 43246
Int'l Code: 2018-029B
Perigee: 21,519.2 km
Apogee: 21,550.7 km
Inclination: 55.2 °
Period: 773.2 minutes
Semi major axis: 27905 km
RCS: Unknown
Launch date: March 29, 2018
Source: People's Republic of China (PRC)
Launch site: Xichang Space Center, China (XSC)
aabbcc
Your satellite tracking list
Your tracking list is empty




NASA's NSSDC Master Catalog

Two Line Element Set (TLE):
1 43246U 18029B   19016.73511814 -.00000041  00000-0  10000-3 0  9996
2 43246  55.1540  33.1986 0005660 309.2331 205.6937  1.86233420  5443
Source of the keplerian elements: AFSPC